Location: Newark
(45.8667°N, 9.7333°E)
Time: 06:09:13
(UTC+00:00)

Transit 2A Rocket - All Passes

Search period start: 19 January 2020 00:00
Search period end: 29 January 2020 00:00
Orbit: 593 x 910 km, 66.7° (Epoch: 18 January)

Date Brightness Start Highest point End Pass type
(mag) Time Alt. Az. Time Alt. Az. Time Alt. Az.
19 Jan - 05:01:23 10° SSE 05:04:17 18° ESE 05:07:10 10° ENE visible
19 Jan - 06:42:11 10° SW 06:46:23 52° NW 06:50:39 10° NNE daylight
19 Jan - 08:28:51 10° NW 08:30:00 11° NNW 08:31:10 10° NNW daylight
19 Jan - 13:39:57 10° NNW 13:44:11 32° NE 13:48:46 10° ESE daylight
19 Jan - 15:22:18 10° NW 15:26:49 41° WSW 15:31:44 10° S daylight
20 Jan - 05:59:30 10° SSW 06:03:50 87° ESE 06:08:11 10° NNE visible
20 Jan - 07:44:21 10° WNW 07:47:00 16° NW 07:49:41 10° N daylight
20 Jan - 12:57:45 10° N 13:01:24 22° NE 13:05:16 10° E daylight
20 Jan - 14:39:35 10° NW 14:44:22 70° WSW 14:49:36 10° SSE daylight
21 Jan - 05:17:12 10° S 05:21:21 47° ESE 05:25:31 10° NE visible
21 Jan - 07:00:38 10° W 07:04:07 23° NW 07:07:40 10° NNE daylight
21 Jan - 12:15:46 10° N 12:18:30 15° NE 12:21:20 10° ENE daylight
21 Jan - 13:57:03 10° NNW 14:01:50 71° NE 14:07:03 10° SE daylight
21 Jan - 15:40:44 10° WNW 15:43:58 17° WSW 15:47:22 10° SSW daylight
22 Jan - 04:35:25 10° SSE 04:39:00 26° ESE 04:42:35 10° NE visible
22 Jan - 06:17:21 10° WSW 06:21:21 37° NW 06:25:26 10° NNE visible
22 Jan - 11:34:25 10° NNE 11:35:28 11° NNE 11:36:32 10° NE daylight
22 Jan - 13:14:39 10° NNW 13:19:13 43° NE 13:24:09 10° ESE daylight
22 Jan - 14:57:25 10° NW 15:01:38 29° WSW 15:06:10 10° S daylight
23 Jan - 03:54:25 10° SE 03:56:45 14° ESE 03:59:03 10° ENE visible
23 Jan - 05:34:26 10° SW 05:38:42 64° NW 05:43:03 10° NNE visible
23 Jan - 07:20:19 10° WNW 07:22:11 12° NNW 07:24:03 10° N daylight
23 Jan - 12:32:22 10° NNW 12:36:29 28° NE 12:40:53 10° ESE daylight
23 Jan - 14:14:32 10° NW 14:19:14 50° WSW 14:24:21 10° S daylight
24 Jan - 04:51:53 10° SSW 04:56:11 71° ESE 05:00:30 10° NE visible
24 Jan - 06:36:13 10° W 06:39:13 18° NW 06:42:16 10° N daylight
24 Jan - 11:50:14 10° N 11:53:39 19° NE 11:57:15 10° E daylight
24 Jan - 13:31:53 10° NW 13:36:45 84° WSW 13:42:03 10° SSE daylight
24 Jan - 15:16:45 10° W 15:18:41 12° WSW 15:20:40 10° SW daylight
25 Jan - 04:09:45 10° S 04:13:45 38° ESE 04:17:46 10° NE visible
25 Jan - 05:52:40 10° WSW 05:56:22 27° NW 06:00:08 10° NNE visible
25 Jan - 11:08:20 10° N 11:10:42 13° NNE 11:13:09 10° ENE daylight
25 Jan - 12:49:25 10° NNW 12:54:10 60° NE 12:59:23 10° SE daylight
25 Jan - 14:32:43 10° WNW 14:36:25 21° WSW 14:40:21 10° SSW daylight
26 Jan - 03:28:10 10° SSE 03:31:26 21° ESE 03:34:42 10° ENE visible
26 Jan - 05:09:31 10° SW 05:13:39 44° NW 05:17:51 10° NNE visible
26 Jan - 12:07:03 10° NNW 12:11:31 37° NE 12:16:21 10° ESE daylight
26 Jan - 13:49:35 10° NW 13:54:04 35° WSW 13:58:53 10° S daylight
27 Jan - 02:47:48 10° SE 02:49:12 11° ESE 02:50:37 10° E visible
27 Jan - 04:26:44 10° SW 04:31:03 78° NW 04:35:25 10° NNE visible
27 Jan - 06:12:01 10° WNW 06:14:22 14° NW 06:16:45 10° N visible
27 Jan - 11:24:49 10° NNW 11:28:46 25° NE 11:32:58 10° E daylight
27 Jan - 13:06:49 10° NW 13:11:37 60° WSW 13:16:52 10° SSE daylight
28 Jan - 03:44:20 10° SSW 03:48:33 57° ESE 03:52:49 10° NE visible
28 Jan - 05:28:10 10° W 05:31:26 21° NW 05:34:47 10° N visible
28 Jan - 10:42:44 10° N 10:45:53 17° NE 10:49:11 10° E daylight
28 Jan - 12:24:14 10° NNW 12:29:06 83° ENE 12:34:27 10° SE daylight
28 Jan - 14:08:20 10° WNW 14:11:09 15° WSW 14:14:06 10° SW daylight
